Location: Buckenweiler
(49.0667°N, 10.2500°E)
Time: 23:35:11
(UTC+00:00)

Cosmos 1805 Rocket - Pass Details

Date: 18 January 2026
Orbit: 598 x 623 km, 82.5° (Epoch: 16 February)

Event Time Altitude Azimuth Distance (km) Brightness Sun altitude
Rises 05:10:26 0° 207° (SSW) 2,893 6.8 -18.4°
Reaches altitude 10° 05:12:46 10° 214° (SW) 1,990 5.9 -18.0°
Maximum altitude 05:16:57 41° 286° (WNW) 903 3.9 -17.3°
Drops below altitude 10° 05:21:09 10° 357° (N) 1,996 6.0 -16.7°
Sets 05:23:29 0° 5° (N) 2,902 6.9 -16.3°
